Regional Weather Roundup
Issued by NWS

Home | Current Version | Previous Version | Text Only | Print | Product List | Glossary On
Versions: 1 2 3 4 5 6 7 8 9 10 11 12 13 14 15 16 17 18 19 20 21 22 23 24 25 26 27 28 29 30 31 32 33 34 35 36 37 38 39 40 41 42 43 44 45 46 47 48 49 50
165
ASCA44 KEWX 290820
RWRMX

LATIN AMERICA AND CARIBBEAN REGIONAL WEATHER ROUNDUP
NATIONAL WEATHER SERVICE AUSTIN/SAN ANTONIO TX
300 AM CDT FRI JUL 29 2016

NOTE: "FAIR" INDICATED FEW OR NO CLOUDS BELOW 12,000 FEET WITH NO
SIGNIFICANT WEATHER AND/OR OBSTRUCTIONS TO VISIBILITY.

BAJA CALIFORNIA

CITY           SKY/WX    TMP DP  RH WIND       PRES   REMARKS
MEXICALI       CLEAR     86  72  62 SE3       29.70F HX  92
S.J. DEL CABO    N/A    N/A N/A N/A MISG        N/A
TIJUANA        CLEAR     70  61  73 W6        29.87F

NORTHWESTERN MEXICO

CITY           SKY/WX    TMP DP  RH WIND       PRES   REMARKS
HERMOSILLO     LGT RAIN  79  75  89 SW3       29.86F

NORTHEASTERN MEXICO

CITY           SKY/WX    TMP DP  RH WIND       PRES   REMARKS
MONCLOVA         N/A    N/A N/A N/A MISG        N/A
MONTERREY      PTCLDY    77  70  78 E7        29.96F
REYNOSA          N/A    N/A N/A N/A MISG        N/A
SALTILLO       MOCLDY    64  57  77 CALM      30.19F
CD. VICTORIA     N/A    N/A N/A N/A MISG        N/A

WESTERN MEXICO

CITY           SKY/WX    TMP DP  RH WIND       PRES   REMARKS
AGUASCALIENTES   N/A    N/A N/A N/A MISG        N/A
COLIMA           N/A    N/A N/A N/A MISG        N/A
DEL BAJIO      MOCLDY    59  57  94 CALM      30.30
GUADALAJARA      N/A    N/A N/A N/A MISG        N/A
MAZATLAN       CLOUDY    77  75  94 NE3       29.88F
P. VALLARTA    MOCLDY    79  77  94 N7        29.87F
URUAPAN          N/A    N/A N/A N/A MISG        N/A
ZACATECAS        N/A    N/A N/A N/A MISG        N/A

CENTRAL MEXICO

CITY           SKY/WX    TMP DP  RH WIND       PRES   REMARKS
CUERNAVACA       N/A    N/A N/A N/A MISG        N/A
MEXICO CITY    MOCLDY    59  52  77 NW5       30.33F
MORELIA        MOCLDY    55  55 100 CALM      30.25S
POZA RICA        N/A    N/A N/A N/A MISG        N/A
S. LUIS POTOSI CLOUDY    63  54  72 E7        30.28R
TOLUCA         MOCLDY    52  50  93 CALM      30.39F

SOUTHERN MEXICO

CITY           SKY/WX    TMP DP  RH WIND       PRES   REMARKS
ACAPULCO       TSTM      73  73 100 N8        29.91F
B. DE HUATULCO   N/A    N/A N/A N/A MISG        N/A
P. ESCONDIDO     N/A    N/A N/A N/A MISG        N/A
VERACRUZ         N/A    N/A N/A N/A MISG        N/A

YUCATAN PENINSULA

CITY           SKY/WX    TMP DP  RH WIND       PRES   REMARKS
CAMPECHE         N/A    N/A N/A N/A MISG        N/A
CANCUN         PTCLDY    82  77  83 E6        29.97F HX  91
CHETUMAL         N/A    N/A N/A N/A MISG        N/A
CD. DEL CARMEN   N/A    N/A N/A N/A MISG        N/A
COZUMEL        PTCLDY    73  73 100 CALM      29.97R
MERIDA         CLEAR     77  75  94 CALM      29.94F
MINATITLAN       N/A    N/A N/A N/A MISG        N/A
TAPACHULA      PTCLDY    79  75  89 CALM      29.82S

CENTRAL AMERICA

CITY           SKY/WX    TMP DP  RH WIND       PRES   REMARKS

CARIBBEAN

CITY           SKY/WX    TMP DP  RH WIND       PRES   REMARKS
ARUBA          SHOWER    79  75  89 E12       29.89S
CURACAO        PTCLDY    82  77  83 E10       29.89S HX  91
KINGSTON       PTCLDY    84  72  65 N7        29.92S
SAN JUAN       PTCLDY    79  75  89 CALM      29.97F
SANTO DOMINGO  PTCLDY    73  73 100 VRB3      29.94F
ST. CROIX      MOCLDY    79  72  78 NE9       29.98
ST. MAARTEN    PTCLDY    82  75  78 E14       29.97S

$$





USA.gov is the U.S. government's official web portal to all federal, state and local government web resources and services.